Location: *
(43.0409°N, 0.1694°E)
Time: 21:20:31
(UTC+00:00)

Cosmos 1745 Rocket - Pass Details

Date: 03 October 2023
Orbit: 951 x 998 km, 83.0° (Epoch: 04 December)

Event Time Altitude Azimuth Distance (km) Brightness Sun altitude
Rises 04:45:53 0° 198° (SSW) 3,683 6.8 -14.1°
Reaches altitude 10° 04:48:25 10° 202° (SSW) 2,744 6.1 -13.6°
Maximum altitude 04:54:38 59° 281° (W) 1,142 4.1 -12.5°
Drops below altitude 10° 05:00:56 10° 1° (N) 2,777 6.5 -11.3°
Sets 05:03:32 0° 5° (N) 3,731 7.2 -10.8°
